Year,Month,Day,Hour,Minute,Value (Times are PST for temperature in C)
2008,06,29,00,00,19.40
2008,06,29,00,01,19.30
2008,06,29,00,02,19.30
2008,06,29,00,03,19.20
2008,06,29,00,04,19.20
2008,06,29,00,05,19.20
2008,06,29,00,06,19.10
2008,06,29,00,07,19.10
2008,06,29,00,08,19.10
2008,06,29,00,09,19.20
2008,06,29,00,10,19.20
2008,06,29,00,11,19.30
2008,06,29,00,12,19.30
2008,06,29,00,13,19.20
2008,06,29,00,14,19.20
2008,06,29,00,15,19.20
2008,06,29,00,16,19.20
2008,06,29,00,17,19.10
2008,06,29,00,18,19.10
2008,06,29,00,19,19.10
2008,06,29,00,20,19.10
2008,06,29,00,21,19.10
2008,06,29,00,22,19.00
2008,06,29,00,23,19.10
2008,06,29,00,24,19.10
2008,06,29,00,25,19.10
2008,06,29,00,26,19.00
2008,06,29,00,27,19.00
2008,06,29,00,28,18.90
2008,06,29,00,29,18.90
2008,06,29,00,30,18.90
2008,06,29,00,31,19.00
2008,06,29,00,32,19.00
2008,06,29,00,33,19.00
2008,06,29,00,34,19.10
2008,06,29,00,35,19.10
2008,06,29,00,36,19.00
2008,06,29,00,37,19.00
2008,06,29,00,38,19.00
2008,06,29,00,39,18.90
2008,06,29,00,40,18.90
2008,06,29,00,41,18.90
2008,06,29,00,42,18.90
2008,06,29,00,43,18.90
2008,06,29,00,44,18.80
2008,06,29,00,45,18.80
2008,06,29,00,46,18.80
2008,06,29,00,47,18.80
2008,06,29,00,48,18.80
2008,06,29,00,49,18.80
2008,06,29,00,50,18.80
2008,06,29,00,51,18.80
2008,06,29,00,52,18.80
2008,06,29,00,53,18.90
2008,06,29,00,54,18.90
2008,06,29,00,55,18.90
2008,06,29,00,56,18.80
2008,06,29,00,57,18.80
2008,06,29,00,58,18.80
2008,06,29,00,59,18.80
2008,06,29,01,00,18.70
2008,06,29,01,01,18.70
2008,06,29,01,02,18.80
2008,06,29,01,03,18.90
2008,06,29,01,04,18.90
2008,06,29,01,05,19.10
2008,06,29,01,06,19.20
2008,06,29,01,07,19.30
2008,06,29,01,08,19.40
2008,06,29,01,09,19.50
2008,06,29,01,10,19.70
2008,06,29,01,11,19.80
2008,06,29,01,12,20.00
2008,06,29,01,13,20.00
2008,06,29,01,14,20.20
2008,06,29,01,15,20.20
2008,06,29,01,16,20.20
2008,06,29,01,17,20.30
2008,06,29,01,18,20.30
2008,06,29,01,19,20.30
2008,06,29,01,20,20.30
2008,06,29,01,21,20.30
2008,06,29,01,22,20.20
2008,06,29,01,23,20.20
2008,06,29,01,24,20.20
2008,06,29,01,25,20.10
2008,06,29,01,26,20.20
2008,06,29,01,27,20.10
2008,06,29,01,28,20.10
2008,06,29,01,29,20.20
2008,06,29,01,30,20.20
2008,06,29,01,31,20.30
2008,06,29,01,32,20.30
2008,06,29,01,33,20.30
2008,06,29,01,34,20.30
2008,06,29,01,35,20.20
2008,06,29,01,36,20.20
2008,06,29,01,37,20.20
2008,06,29,01,38,20.10
2008,06,29,01,39,20.10
2008,06,29,01,40,20.00
2008,06,29,01,41,20.00
2008,06,29,01,42,19.90
2008,06,29,01,43,19.90
2008,06,29,01,44,19.80
2008,06,29,01,45,19.80
2008,06,29,01,46,19.80
2008,06,29,01,47,19.70
2008,06,29,01,48,19.70
2008,06,29,01,49,19.70
2008,06,29,01,50,19.60
2008,06,29,01,51,19.60
2008,06,29,01,52,19.50
2008,06,29,01,53,19.50
2008,06,29,01,54,19.40
2008,06,29,01,55,19.40
2008,06,29,01,56,19.30
2008,06,29,01,57,19.30
2008,06,29,01,58,19.30
2008,06,29,01,59,19.20
2008,06,29,02,00,19.20
2008,06,29,02,01,19.20
2008,06,29,02,02,19.10
2008,06,29,02,03,19.00
2008,06,29,02,04,19.00
2008,06,29,02,05,18.90
2008,06,29,02,06,18.90
2008,06,29,02,07,18.90
2008,06,29,02,08,18.90
2008,06,29,02,09,18.80
2008,06,29,02,10,18.80
2008,06,29,02,11,18.80
2008,06,29,02,12,18.80
2008,06,29,02,13,18.80
2008,06,29,02,14,18.80
2008,06,29,02,15,18.80
2008,06,29,02,16,18.80
2008,06,29,02,17,18.80
2008,06,29,02,18,18.70
2008,06,29,02,19,18.70
2008,06,29,02,20,18.70
2008,06,29,02,21,18.70
2008,06,29,02,22,18.70
2008,06,29,02,23,18.70
2008,06,29,02,24,18.70
2008,06,29,02,25,18.70
2008,06,29,02,26,18.70
2008,06,29,02,27,18.70
2008,06,29,02,28,18.70
2008,06,29,02,29,18.80
2008,06,29,02,30,18.80
2008,06,29,02,31,18.70
2008,06,29,02,32,18.70
2008,06,29,02,33,18.60
2008,06,29,02,34,18.60
2008,06,29,02,35,18.50
2008,06,29,02,36,18.50
2008,06,29,02,37,18.50
2008,06,29,02,38,18.40
2008,06,29,02,39,18.40
2008,06,29,02,40,18.40
2008,06,29,02,41,18.40
2008,06,29,02,42,18.40
2008,06,29,02,43,18.50
2008,06,29,02,44,18.50
2008,06,29,02,45,18.50
2008,06,29,02,46,18.60
2008,06,29,02,47,18.60
2008,06,29,02,48,18.60
2008,06,29,02,49,18.60
2008,06,29,02,50,18.60
2008,06,29,02,51,18.60
2008,06,29,02,52,18.70
2008,06,29,02,53,18.80
2008,06,29,02,54,18.80
2008,06,29,02,55,18.90
2008,06,29,02,56,18.90
2008,06,29,02,57,19.00
2008,06,29,02,58,19.00
2008,06,29,02,59,19.00
2008,06,29,03,00,19.10
2008,06,29,03,01,19.20
2008,06,29,03,02,19.10
2008,06,29,03,03,19.10
2008,06,29,03,04,19.10
2008,06,29,03,05,19.00
2008,06,29,03,06,18.90
2008,06,29,03,07,18.90
2008,06,29,03,08,18.90
2008,06,29,03,09,18.80
2008,06,29,03,10,18.80
2008,06,29,03,11,18.80
2008,06,29,03,12,18.80
2008,06,29,03,13,18.80
2008,06,29,03,14,18.80
2008,06,29,03,15,18.70
2008,06,29,03,16,18.70
2008,06,29,03,17,18.60
2008,06,29,03,18,18.60
2008,06,29,03,19,18.50
2008,06,29,03,20,18.50
2008,06,29,03,21,18.50
2008,06,29,03,22,18.50
2008,06,29,03,23,18.50
2008,06,29,03,24,18.50
2008,06,29,03,25,18.50
2008,06,29,03,26,18.40
2008,06,29,03,27,18.40
2008,06,29,03,28,18.40
2008,06,29,03,29,18.30
2008,06,29,03,30,18.30
2008,06,29,03,31,18.30
2008,06,29,03,32,18.30
2008,06,29,03,33,18.20
2008,06,29,03,34,18.20
2008,06,29,03,35,18.10
2008,06,29,03,36,18.10
2008,06,29,03,37,18.00
2008,06,29,03,38,18.00
2008,06,29,03,39,18.00
2008,06,29,03,40,18.00
2008,06,29,03,41,18.00
2008,06,29,03,42,17.90
2008,06,29,03,43,17.90
2008,06,29,03,44,17.90
2008,06,29,03,45,17.90
2008,06,29,03,46,17.90
2008,06,29,03,47,17.90
2008,06,29,03,48,17.90
2008,06,29,03,49,18.00
2008,06,29,03,50,18.00
2008,06,29,03,51,18.10
2008,06,29,03,52,18.20
2008,06,29,03,53,18.30
2008,06,29,03,54,18.30
2008,06,29,03,55,18.30
2008,06,29,03,56,18.30
2008,06,29,03,57,18.30
2008,06,29,03,58,18.30
2008,06,29,03,59,18.20
2008,06,29,04,00,18.20
2008,06,29,04,01,18.10
2008,06,29,04,02,18.10
2008,06,29,04,03,18.00
2008,06,29,04,04,17.90
2008,06,29,04,05,17.90
2008,06,29,04,06,17.90
2008,06,29,04,07,17.80
2008,06,29,04,08,17.80
2008,06,29,04,09,17.80
2008,06,29,04,10,17.80
2008,06,29,04,11,17.80
2008,06,29,04,12,17.70
2008,06,29,04,13,17.70
2008,06,29,04,14,17.70
2008,06,29,04,15,17.60
2008,06,29,04,16,17.60
2008,06,29,04,17,17.50
2008,06,29,04,18,17.40
2008,06,29,04,19,17.40
2008,06,29,04,20,17.40
2008,06,29,04,21,17.40
2008,06,29,04,22,17.40
2008,06,29,04,23,17.30
2008,06,29,04,24,17.30
2008,06,29,04,25,17.30
2008,06,29,04,26,17.30
2008,06,29,04,27,17.30
2008,06,29,04,28,17.30
2008,06,29,04,29,17.20
2008,06,29,04,30,17.20
2008,06,29,04,31,17.20
2008,06,29,04,32,17.20
2008,06,29,04,33,17.20
2008,06,29,04,34,17.10
2008,06,29,04,35,17.10
2008,06,29,04,36,17.10
2008,06,29,04,37,17.10
2008,06,29,04,38,17.10
2008,06,29,04,39,17.10
2008,06,29,04,40,17.10
2008,06,29,04,41,17.10
2008,06,29,04,42,17.00
2008,06,29,04,43,17.00
2008,06,29,04,44,17.00
2008,06,29,04,45,17.00
2008,06,29,04,46,16.90
2008,06,29,04,47,16.90
2008,06,29,04,48,16.90
2008,06,29,04,49,16.90
2008,06,29,04,50,16.80
2008,06,29,04,51,16.80
2008,06,29,04,52,16.80
2008,06,29,04,53,16.80
2008,06,29,04,54,16.80
2008,06,29,04,55,16.80
2008,06,29,04,56,16.80
2008,06,29,04,57,16.80
2008,06,29,04,58,16.80
2008,06,29,04,59,16.80
2008,06,29,05,00,16.70
2008,06,29,05,01,16.70
2008,06,29,05,02,16.70
2008,06,29,05,03,16.70
2008,06,29,05,04,16.70
2008,06,29,05,05,16.60
2008,06,29,05,06,16.60
2008,06,29,05,07,16.60
2008,06,29,05,08,16.50
2008,06,29,05,09,16.50
2008,06,29,05,10,16.40
2008,06,29,05,11,16.40
2008,06,29,05,12,16.40
2008,06,29,05,13,16.30
2008,06,29,05,14,16.30
2008,06,29,05,15,16.30
2008,06,29,05,16,16.30
2008,06,29,05,17,16.20
2008,06,29,05,18,16.20
2008,06,29,05,19,16.10
2008,06,29,05,20,16.00
2008,06,29,05,21,16.00
2008,06,29,05,22,15.90
2008,06,29,05,23,15.90
2008,06,29,05,24,15.80
2008,06,29,05,25,15.80
2008,06,29,05,26,15.80
2008,06,29,05,27,15.80
2008,06,29,05,28,15.80
2008,06,29,05,29,15.70
2008,06,29,05,30,15.70
2008,06,29,05,31,15.70
2008,06,29,05,32,15.70
2008,06,29,05,33,15.70
2008,06,29,05,34,15.70
2008,06,29,05,35,15.70
2008,06,29,05,36,15.70
2008,06,29,05,37,15.60
2008,06,29,05,38,15.60
2008,06,29,05,39,15.70
2008,06,29,05,40,15.70
2008,06,29,05,41,15.70
2008,06,29,05,42,15.70
2008,06,29,05,43,15.70
2008,06,29,05,44,15.80
2008,06,29,05,45,15.80
2008,06,29,05,46,15.80
2008,06,29,05,47,15.80
2008,06,29,05,48,15.80
2008,06,29,05,49,15.90
2008,06,29,05,50,15.90
2008,06,29,05,51,15.90
2008,06,29,05,52,16.00
2008,06,29,05,53,16.00
2008,06,29,05,54,16.00
2008,06,29,05,55,16.00
2008,06,29,05,56,16.00
2008,06,29,05,57,16.10
2008,06,29,05,58,16.10
2008,06,29,05,59,16.10
2008,06,29,06,00,16.10
2008,06,29,06,01,16.10
2008,06,29,06,02,16.10
2008,06,29,06,03,16.10
2008,06,29,06,04,16.10
2008,06,29,06,05,16.20
2008,06,29,06,06,16.20
2008,06,29,06,07,16.20
2008,06,29,06,08,16.20
2008,06,29,06,09,16.30
2008,06,29,06,10,16.30
2008,06,29,06,11,16.30
2008,06,29,06,12,16.30
2008,06,29,06,13,16.40
2008,06,29,06,14,16.40
2008,06,29,06,15,16.40
2008,06,29,06,16,16.50
2008,06,29,06,17,16.50
2008,06,29,06,18,16.60
2008,06,29,06,19,16.60
2008,06,29,06,20,16.60
2008,06,29,06,21,16.70
2008,06,29,06,22,16.70
2008,06,29,06,23,16.70
2008,06,29,06,24,16.70
2008,06,29,06,25,16.70
2008,06,29,06,26,16.70
2008,06,29,06,27,16.70
2008,06,29,06,28,16.80
2008,06,29,06,29,16.80
2008,06,29,06,30,16.80
2008,06,29,06,31,16.80
2008,06,29,06,32,16.80
2008,06,29,06,33,16.80
2008,06,29,06,34,16.80
2008,06,29,06,35,16.80
2008,06,29,06,36,16.80
2008,06,29,06,37,16.80
2008,06,29,06,38,16.80
2008,06,29,06,39,16.90
2008,06,29,06,40,16.90
2008,06,29,06,41,16.90
2008,06,29,06,42,16.90
2008,06,29,06,43,17.00
2008,06,29,06,44,17.00
2008,06,29,06,45,17.10
2008,06,29,06,46,17.10
2008,06,29,06,47,17.20
2008,06,29,06,48,17.20
2008,06,29,06,49,17.30
2008,06,29,06,50,17.30
2008,06,29,06,51,17.40
2008,06,29,06,52,17.50
2008,06,29,06,53,17.50
2008,06,29,06,54,17.60
2008,06,29,06,55,17.70
2008,06,29,06,56,17.80
2008,06,29,06,57,17.80
2008,06,29,06,58,17.90
2008,06,29,06,59,18.00
2008,06,29,07,00,18.10
2008,06,29,07,01,18.20
2008,06,29,07,02,18.40
2008,06,29,07,03,18.50
2008,06,29,07,04,18.60
2008,06,29,07,05,18.80
2008,06,29,07,06,18.90
2008,06,29,07,07,19.10
2008,06,29,07,08,19.20
2008,06,29,07,09,19.40
2008,06,29,07,10,19.50
2008,06,29,07,11,19.70
2008,06,29,07,12,19.80
2008,06,29,07,13,20.00
2008,06,29,07,14,20.10
2008,06,29,07,15,20.10
2008,06,29,07,16,20.20
2008,06,29,07,17,20.20
2008,06,29,07,18,20.20
2008,06,29,07,19,20.20
2008,06,29,07,20,20.20
2008,06,29,07,21,20.10
2008,06,29,07,22,20.10
2008,06,29,07,23,20.00
2008,06,29,07,24,20.00
2008,06,29,07,25,19.90
2008,06,29,07,26,19.90
2008,06,29,07,27,19.90
2008,06,29,07,28,19.90
2008,06,29,07,29,19.80
2008,06,29,07,30,19.80
2008,06,29,07,31,19.80
2008,06,29,07,32,19.70
2008,06,29,07,33,19.70
2008,06,29,07,34,19.60
2008,06,29,07,35,19.60
2008,06,29,07,36,19.60
2008,06,29,07,37,19.50
2008,06,29,07,38,19.50
2008,06,29,07,39,19.50
2008,06,29,07,40,19.50
2008,06,29,07,41,19.50
2008,06,29,07,42,19.50
2008,06,29,07,43,19.50
2008,06,29,07,44,19.50
2008,06,29,07,45,19.50
2008,06,29,07,46,19.50
2008,06,29,07,47,19.60
2008,06,29,07,48,19.60
2008,06,29,07,49,19.60
2008,06,29,07,50,19.60
2008,06,29,07,51,19.60
2008,06,29,07,52,19.70
2008,06,29,07,53,19.70
2008,06,29,07,54,19.70
2008,06,29,07,55,19.70
2008,06,29,07,56,19.80
2008,06,29,07,57,19.80
2008,06,29,07,58,19.90
2008,06,29,07,59,19.90
2008,06,29,08,00,20.00
2008,06,29,08,01,20.00
2008,06,29,08,02,20.00
2008,06,29,08,03,20.00
2008,06,29,08,04,20.10
2008,06,29,08,05,20.10
2008,06,29,08,06,20.20
2008,06,29,08,07,20.20
2008,06,29,08,08,20.20
2008,06,29,08,09,20.20
2008,06,29,08,10,20.20
2008,06,29,08,11,20.20
2008,06,29,08,12,20.20
2008,06,29,08,13,20.20
2008,06,29,08,14,20.30
2008,06,29,08,15,20.30
2008,06,29,08,16,20.30
2008,06,29,08,17,20.30
2008,06,29,08,18,20.30
2008,06,29,08,19,20.40
2008,06,29,08,20,20.40
2008,06,29,08,21,20.40
2008,06,29,08,22,20.40
2008,06,29,08,23,20.50
2008,06,29,08,24,20.50
2008,06,29,08,25,20.50
2008,06,29,08,26,20.60
2008,06,29,08,27,20.70
2008,06,29,08,28,20.70
2008,06,29,08,29,20.80
2008,06,29,08,30,20.80
2008,06,29,08,31,20.90
2008,06,29,08,32,20.90
2008,06,29,08,33,20.90
2008,06,29,08,34,21.00
2008,06,29,08,35,21.00
2008,06,29,08,36,21.10
2008,06,29,08,37,21.20
2008,06,29,08,38,21.30
2008,06,29,08,39,21.40
2008,06,29,08,40,21.40
2008,06,29,08,41,21.50
2008,06,29,08,42,21.50
2008,06,29,08,43,21.60
2008,06,29,08,44,21.60
2008,06,29,08,45,21.60
2008,06,29,08,46,21.60
2008,06,29,08,47,21.60
2008,06,29,08,48,21.60
2008,06,29,08,49,21.60
2008,06,29,08,50,21.50
2008,06,29,08,51,21.40
2008,06,29,08,52,21.40
2008,06,29,08,53,21.30
2008,06,29,08,54,21.30
2008,06,29,08,55,21.20
2008,06,29,08,56,21.20
2008,06,29,08,57,21.10
2008,06,29,08,58,21.10
2008,06,29,08,59,21.10
2008,06,29,09,00,21.10
2008,06,29,09,01,21.10
2008,06,29,09,02,21.20
2008,06,29,09,03,21.20
2008,06,29,09,04,21.30
2008,06,29,09,05,21.30
2008,06,29,09,06,21.30
2008,06,29,09,07,21.40
2008,06,29,09,08,21.40
2008,06,29,09,09,21.50
2008,06,29,09,10,21.60
2008,06,29,09,11,21.60
2008,06,29,09,12,21.70
2008,06,29,09,13,21.70
2008,06,29,09,14,21.70
2008,06,29,09,15,21.80
2008,06,29,09,16,21.80
2008,06,29,09,17,21.80
2008,06,29,09,18,21.80
2008,06,29,09,19,21.90
2008,06,29,09,20,21.90
2008,06,29,09,21,22.00
2008,06,29,09,22,22.10
2008,06,29,09,23,22.20
2008,06,29,09,24,22.40
2008,06,29,09,25,22.50
2008,06,29,09,26,22.70
2008,06,29,09,27,22.80
2008,06,29,09,28,22.90
2008,06,29,09,29,22.90
2008,06,29,09,30,22.90
2008,06,29,09,31,23.00
2008,06,29,09,32,23.00
2008,06,29,09,33,23.00
2008,06,29,09,34,23.10
2008,06,29,09,35,23.10
2008,06,29,09,36,23.10
2008,06,29,09,37,23.20
2008,06,29,09,38,23.20
2008,06,29,09,39,23.20
2008,06,29,09,40,23.20
2008,06,29,09,41,23.10
2008,06,29,09,42,23.10
2008,06,29,09,43,23.00
2008,06,29,09,44,23.00
2008,06,29,09,45,23.00
2008,06,29,09,46,22.90
2008,06,29,09,47,22.90
2008,06,29,09,48,22.80
2008,06,29,09,49,22.90
2008,06,29,09,50,22.90
2008,06,29,09,51,23.00
2008,06,29,09,52,23.10
2008,06,29,09,53,23.10
2008,06,29,09,54,23.20
2008,06,29,09,55,23.30
2008,06,29,09,56,23.30
2008,06,29,09,57,23.30
2008,06,29,09,58,23.30
2008,06,29,09,59,23.30
2008,06,29,10,00,23.20
2008,06,29,10,01,23.30
2008,06,29,10,02,23.30
2008,06,29,10,03,23.30
2008,06,29,10,04,23.30
2008,06,29,10,05,23.30
2008,06,29,10,06,23.30
2008,06,29,10,07,23.30
2008,06,29,10,08,23.20
2008,06,29,10,09,23.20
2008,06,29,10,10,23.20
2008,06,29,10,11,23.20
2008,06,29,10,12,23.30
2008,06,29,10,13,23.30
2008,06,29,10,14,23.30
2008,06,29,10,15,23.40
2008,06,29,10,16,23.40
2008,06,29,10,17,23.50
2008,06,29,10,18,23.50
2008,06,29,10,19,23.40
2008,06,29,10,20,23.40
2008,06,29,10,21,23.40
2008,06,29,10,22,23.40
2008,06,29,10,23,23.30
2008,06,29,10,24,23.30
2008,06,29,10,25,23.30
2008,06,29,10,26,23.20
2008,06,29,10,27,23.20
2008,06,29,10,28,23.20
2008,06,29,10,29,23.20
2008,06,29,10,30,23.20
2008,06,29,10,31,23.20
2008,06,29,10,32,23.20
2008,06,29,10,33,23.20
2008,06,29,10,34,23.10
2008,06,29,10,35,23.10
2008,06,29,10,36,23.00
2008,06,29,10,37,23.00
2008,06,29,10,38,22.90
2008,06,29,10,39,23.00
2008,06,29,10,40,23.10
2008,06,29,10,41,23.20
2008,06,29,10,42,23.20
2008,06,29,10,43,23.30
2008,06,29,10,44,23.30
2008,06,29,10,45,23.40
2008,06,29,10,46,23.50
2008,06,29,10,47,23.50
2008,06,29,10,48,23.60
2008,06,29,10,49,23.60
2008,06,29,10,50,23.60
2008,06,29,10,51,23.50
2008,06,29,10,52,23.40
2008,06,29,10,53,23.30
2008,06,29,10,54,23.30
2008,06,29,10,55,23.20
2008,06,29,10,56,23.20
2008,06,29,10,57,23.20
2008,06,29,10,58,23.10
2008,06,29,10,59,23.10
2008,06,29,11,00,23.10
2008,06,29,11,01,23.10
2008,06,29,11,02,23.20
2008,06,29,11,03,23.20
2008,06,29,11,04,23.20
2008,06,29,11,05,23.10
2008,06,29,11,06,23.10
2008,06,29,11,07,23.10
2008,06,29,11,08,23.10
2008,06,29,11,09,23.10
2008,06,29,11,10,23.10
2008,06,29,11,11,23.10
2008,06,29,11,12,23.00
2008,06,29,11,13,22.90
2008,06,29,11,14,23.00
2008,06,29,11,15,23.10
2008,06,29,11,16,23.10
2008,06,29,11,17,23.10
2008,06,29,11,18,23.10
2008,06,29,11,19,23.10
2008,06,29,11,20,23.20
2008,06,29,11,21,23.20
2008,06,29,11,22,23.30
2008,06,29,11,23,23.30
2008,06,29,11,24,23.40
2008,06,29,11,25,23.50
2008,06,29,11,26,23.50
2008,06,29,11,27,23.60
2008,06,29,11,28,23.60
2008,06,29,11,29,23.60
2008,06,29,11,30,23.50
2008,06,29,11,31,23.40
2008,06,29,11,32,23.30
2008,06,29,11,33,23.20
2008,06,29,11,34,23.10
2008,06,29,11,35,23.10
2008,06,29,11,36,23.00
2008,06,29,11,37,22.90
2008,06,29,11,38,22.90
2008,06,29,11,39,22.80
2008,06,29,11,40,22.80
2008,06,29,11,41,22.80
2008,06,29,11,42,22.80
2008,06,29,11,43,22.90
2008,06,29,11,44,22.90
2008,06,29,11,45,22.90
2008,06,29,11,46,22.90
2008,06,29,11,47,22.90
2008,06,29,11,48,22.90
2008,06,29,11,49,22.90
2008,06,29,11,50,22.90
2008,06,29,11,51,22.90
2008,06,29,11,52,22.80
2008,06,29,11,53,22.80
2008,06,29,11,54,22.90
2008,06,29,11,55,22.90
2008,06,29,11,56,22.80
2008,06,29,11,57,22.70
2008,06,29,11,58,22.70
2008,06,29,11,59,22.70
2008,06,29,12,00,22.70
2008,06,29,12,01,22.70
2008,06,29,12,02,22.70
2008,06,29,12,03,22.70
2008,06,29,12,04,22.70
2008,06,29,12,05,22.70
2008,06,29,12,06,22.80
2008,06,29,12,07,22.80
2008,06,29,12,08,22.90
2008,06,29,12,09,22.90
2008,06,29,12,10,23.00
2008,06,29,12,11,23.10
2008,06,29,12,12,23.20
2008,06,29,12,13,23.30
2008,06,29,12,14,23.30
2008,06,29,12,15,23.30
2008,06,29,12,16,23.30
2008,06,29,12,17,23.30
2008,06,29,12,18,23.40
2008,06,29,12,19,23.50
2008,06,29,12,20,23.50
2008,06,29,12,21,23.60
2008,06,29,12,22,23.70
2008,06,29,12,23,23.70
2008,06,29,12,24,23.70
2008,06,29,12,25,23.70
2008,06,29,12,26,23.70
2008,06,29,12,27,23.60
2008,06,29,12,28,23.70
2008,06,29,12,29,23.70
2008,06,29,12,30,23.70
2008,06,29,12,31,23.80
2008,06,29,12,32,23.80
2008,06,29,12,33,23.90
2008,06,29,12,34,24.00
2008,06,29,12,35,24.00
2008,06,29,12,36,24.10
2008,06,29,12,37,24.10
2008,06,29,12,38,24.20
2008,06,29,12,39,24.20
2008,06,29,12,40,24.30
2008,06,29,12,41,24.30
2008,06,29,12,42,24.30
2008,06,29,12,43,24.30
2008,06,29,12,44,24.40
2008,06,29,12,45,24.40
2008,06,29,12,46,24.50
2008,06,29,12,47,24.40
2008,06,29,12,48,24.40
2008,06,29,12,49,24.40
2008,06,29,12,50,24.50
2008,06,29,12,51,24.60
2008,06,29,12,52,24.70
2008,06,29,12,53,24.70
2008,06,29,12,54,24.70
2008,06,29,12,55,24.80
2008,06,29,12,56,24.80
2008,06,29,12,57,24.80
2008,06,29,12,58,24.80
2008,06,29,12,59,24.90
2008,06,29,13,00,24.80
2008,06,29,13,01,24.80
2008,06,29,13,02,24.80
2008,06,29,13,03,24.90
2008,06,29,13,04,25.00
2008,06,29,13,05,25.10
2008,06,29,13,06,25.20
2008,06,29,13,07,25.40
2008,06,29,13,08,25.50
2008,06,29,13,09,25.50
2008,06,29,13,10,25.60
2008,06,29,13,11,25.60
2008,06,29,13,12,25.60
2008,06,29,13,13,25.60
2008,06,29,13,14,25.60
2008,06,29,13,15,25.70
2008,06,29,13,16,25.90
2008,06,29,13,17,26.00
2008,06,29,13,18,26.10
2008,06,29,13,19,26.10
2008,06,29,13,20,26.10
2008,06,29,13,21,26.10
2008,06,29,13,22,26.00
2008,06,29,13,23,25.90
2008,06,29,13,24,25.90
2008,06,29,13,25,25.90
2008,06,29,13,26,25.90
2008,06,29,13,27,25.90
2008,06,29,13,28,25.90
2008,06,29,13,29,25.90
2008,06,29,13,30,25.90
2008,06,29,13,31,26.00
2008,06,29,13,32,26.10
2008,06,29,13,33,26.20
2008,06,29,13,34,26.30
2008,06,29,13,35,26.40
2008,06,29,13,36,26.50
2008,06,29,13,37,26.60
2008,06,29,13,38,26.70
2008,06,29,13,39,26.70
2008,06,29,13,40,26.70
2008,06,29,13,41,26.70
2008,06,29,13,42,26.80
2008,06,29,13,43,26.80
2008,06,29,13,44,26.90
2008,06,29,13,45,27.00
2008,06,29,13,46,27.10
2008,06,29,13,47,27.10
2008,06,29,13,48,27.20
2008,06,29,13,49,27.10
2008,06,29,13,50,27.00
2008,06,29,13,51,26.90
2008,06,29,13,52,26.80
2008,06,29,13,53,26.60
2008,06,29,13,54,26.40
2008,06,29,13,55,26.20
2008,06,29,13,56,26.10
2008,06,29,13,57,26.00
2008,06,29,13,58,26.00
2008,06,29,13,59,25.90
2008,06,29,14,00,25.90
2008,06,29,14,01,25.90
2008,06,29,14,02,26.00
2008,06,29,14,03,26.10
2008,06,29,14,04,26.20
2008,06,29,14,05,26.30
2008,06,29,14,06,26.30
2008,06,29,14,07,26.30
2008,06,29,14,08,26.30
2008,06,29,14,09,26.30
2008,06,29,14,10,26.30
2008,06,29,14,11,26.30
2008,06,29,14,12,26.30
2008,06,29,14,13,26.30
2008,06,29,14,14,26.20
2008,06,29,14,15,26.20
2008,06,29,14,16,26.10
2008,06,29,14,17,26.00
2008,06,29,14,18,26.00
2008,06,29,14,19,25.90
2008,06,29,14,20,26.00
2008,06,29,14,21,26.00
2008,06,29,14,22,25.90
2008,06,29,14,23,25.90
2008,06,29,14,24,25.80
2008,06,29,14,25,25.80
2008,06,29,14,26,25.70
2008,06,29,14,27,25.80
2008,06,29,14,28,25.80
2008,06,29,14,29,25.90
2008,06,29,14,30,25.90
2008,06,29,14,31,25.90
2008,06,29,14,32,25.90
2008,06,29,14,33,25.90
2008,06,29,14,34,26.00
2008,06,29,14,35,26.10
2008,06,29,14,36,26.20
2008,06,29,14,37,26.20
2008,06,29,14,38,26.10
2008,06,29,14,39,26.10
2008,06,29,14,40,26.20
2008,06,29,14,41,26.20
2008,06,29,14,42,26.20
2008,06,29,14,43,26.30
2008,06,29,14,44,26.30
2008,06,29,14,45,26.30
2008,06,29,14,46,26.10
2008,06,29,14,47,25.90
2008,06,29,14,48,25.80
2008,06,29,14,49,25.70
2008,06,29,14,50,25.70
2008,06,29,14,51,25.70
2008,06,29,14,52,25.70
2008,06,29,14,53,25.70
2008,06,29,14,54,25.70
2008,06,29,14,55,25.70
2008,06,29,14,56,25.70
2008,06,29,14,57,25.70
2008,06,29,14,58,25.70
2008,06,29,14,59,25.70
2008,06,29,15,00,25.80
2008,06,29,15,01,25.80
2008,06,29,15,02,25.90
2008,06,29,15,03,26.00
2008,06,29,15,04,26.10
2008,06,29,15,05,26.20
2008,06,29,15,06,26.40
2008,06,29,15,07,26.50
2008,06,29,15,08,26.70
2008,06,29,15,09,26.90
2008,06,29,15,10,27.00
2008,06,29,15,11,27.20
2008,06,29,15,12,27.20
2008,06,29,15,13,27.20
2008,06,29,15,14,27.10
2008,06,29,15,15,26.90
2008,06,29,15,16,26.80
2008,06,29,15,17,26.70
2008,06,29,15,18,26.60
2008,06,29,15,19,26.50
2008,06,29,15,20,26.50
2008,06,29,15,21,26.50
2008,06,29,15,22,26.60
2008,06,29,15,23,26.60
2008,06,29,15,24,26.70
2008,06,29,15,25,26.80
2008,06,29,15,26,26.90
2008,06,29,15,27,26.90
2008,06,29,15,28,27.00
2008,06,29,15,29,27.10
2008,06,29,15,30,27.20
2008,06,29,15,31,27.20
2008,06,29,15,32,27.20
2008,06,29,15,33,27.20
2008,06,29,15,34,27.20
2008,06,29,15,35,27.20
2008,06,29,15,36,27.20
2008,06,29,15,37,27.10
2008,06,29,15,38,27.00
2008,06,29,15,39,26.90
2008,06,29,15,40,26.90
2008,06,29,15,41,26.90
2008,06,29,15,42,26.90
2008,06,29,15,43,26.90
2008,06,29,15,44,27.00
2008,06,29,15,45,27.00
2008,06,29,15,46,27.10
2008,06,29,15,47,27.00
2008,06,29,15,48,27.00
2008,06,29,15,49,27.00
2008,06,29,15,50,27.10
2008,06,29,15,51,27.20
2008,06,29,15,52,27.30
2008,06,29,15,53,27.40
2008,06,29,15,54,27.50
2008,06,29,15,55,27.70
2008,06,29,15,56,27.80
2008,06,29,15,57,28.00
2008,06,29,15,58,28.10
2008,06,29,15,59,28.30
2008,06,29,16,00,28.50
2008,06,29,16,01,28.50
2008,06,29,16,02,28.50
2008,06,29,16,03,28.50
2008,06,29,16,04,28.50
2008,06,29,16,05,28.50
2008,06,29,16,06,28.40
2008,06,29,16,07,28.20
2008,06,29,16,08,28.00
2008,06,29,16,09,27.80
2008,06,29,16,10,27.60
2008,06,29,16,11,27.50
2008,06,29,16,12,27.40
2008,06,29,16,13,27.30
2008,06,29,16,14,27.30
2008,06,29,16,15,27.30
2008,06,29,16,16,27.30
2008,06,29,16,17,27.30
2008,06,29,16,18,27.30
2008,06,29,16,19,27.40
2008,06,29,16,20,27.40
2008,06,29,16,21,27.50
2008,06,29,16,22,27.50
2008,06,29,16,23,27.60
2008,06,29,16,24,27.70
2008,06,29,16,25,27.70
2008,06,29,16,26,27.70
2008,06,29,16,27,27.70
2008,06,29,16,28,27.60
2008,06,29,16,29,27.50
2008,06,29,16,30,27.40
2008,06,29,16,31,27.30
2008,06,29,16,32,27.30
2008,06,29,16,33,27.30
2008,06,29,16,34,27.20
2008,06,29,16,35,27.20
2008,06,29,16,36,27.20
2008,06,29,16,37,27.30
2008,06,29,16,38,27.30
2008,06,29,16,39,27.30
2008,06,29,16,40,27.40
2008,06,29,16,41,27.40
2008,06,29,16,42,27.40
2008,06,29,16,43,27.40
2008,06,29,16,44,27.40
2008,06,29,16,45,27.50
2008,06,29,16,46,27.50
2008,06,29,16,47,27.50
2008,06,29,16,48,27.50
2008,06,29,16,49,27.40
2008,06,29,16,50,27.40
2008,06,29,16,51,27.30
2008,06,29,16,52,27.30
2008,06,29,16,53,27.20
2008,06,29,16,54,27.20
2008,06,29,16,55,27.10
2008,06,29,16,56,27.00
2008,06,29,16,57,26.90
2008,06,29,16,58,26.90
2008,06,29,16,59,26.90
2008,06,29,17,00,26.80
2008,06,29,17,01,26.80
2008,06,29,17,02,26.80
2008,06,29,17,03,26.80
2008,06,29,17,04,26.80
2008,06,29,17,05,26.90
2008,06,29,17,06,26.90
2008,06,29,17,07,27.00
2008,06,29,17,08,27.10
2008,06,29,17,09,27.10
2008,06,29,17,10,27.20
2008,06,29,17,11,27.20
2008,06,29,17,12,27.20
2008,06,29,17,13,27.20
2008,06,29,17,14,27.20
2008,06,29,17,15,27.20
2008,06,29,17,16,27.20
2008,06,29,17,17,27.20
2008,06,29,17,18,27.20
2008,06,29,17,19,27.30